Weather History for Brenham, TX

Change the Weather History Date:

Thursday, August 14, 2014

  Actual Average (KCLL) Record (KCLL)
Temperature  
Mean Temperature 82 °F 86 °F  
Max Temperature 95 °F 97 °F 106 °F (1951)
Min Temperature 69 °F 75 °F 61 °F (1967)
Degree Days  
Heating Degree Days 0 0  
Month to date heating degree days 0  
Since 1 June heating degree days 0  
Since 1 July heating degree days 0  
Cooling Degree Days 17 21  
Month to date cooling degree days 293  
Year to date cooling degree days 2008  
Since 1 June cooling degree days 1420  
Growing Degree Days 32 (Base 50)    
Moisture  
Dew Point 67 °F    
Average Humidity 62    
Maximum Humidity 87    
Minimum Humidity 36    
Precipitation  
Precipitation 0.00 in 0.08 in 1.91 in (1959)
Month to date precipitation 1.03  
Year to date precipitation 23.87  
Sea Level Pressure  
Sea Level Pressure 30.01 in    
Wind  
Wind Speed 2 mph (ESE)    
Max Wind Speed 9 mph    
Max Gust Speed 16 mph    
Visibility 10 miles    
Events Thunderstorm    
T = Trace of Precipitation, MM = Missing Value Source: NWS Daily Summary

Daily Weather History Graph

Daily Weather History Graph

Search for Another Location

Airport:

Trip Planner

Search our weather history database for the weather conditions in past years. The results will help you decide how hot, cold, wet, or windy it might be!

Date:

Astronomy

Aug. 14, 2014 Rise Set
Actual Time 6:52 AM CDT 8:07 PM CDT
Civil Twilight 6:26 AM CDT 8:33 PM CDT
Nautical Twilight 5:56 AM CDT 9:03 PM CDT
Astronomical Twilight 5:25 AM CDT 9:34 PM CDT
Moon 10:56 PM CDT (8/14) 11:06 AM CDT (8/14)
Length of Visible Light 14h 06m
Length of Day
13h 15m
Waning Gibbous, 79% of the Moon is Illuminated
Aug 14
Waning Gibbous
Aug 17
Last Quarter
Aug 25
New
Sep 2
First Quarter
Sep 8
Full

Hourly Weather History & Observations

Time (CDT) Temp. Heat Index Dew Point Humidity Pressure Visibility Wind Dir Wind Speed Gust Speed Precip Events Conditions
12:15 AM 77.5 °F - 62.2 °F 59% 30.04 in 10.0 mi Calm Calm - N/A   Clear
12:35 AM 76.6 °F - 62.6 °F 62% 30.04 in 10.0 mi Calm Calm - N/A   Clear
12:55 AM 76.1 °F - 63.7 °F 65% 30.04 in 10.0 mi Calm Calm - N/A   Clear
1:15 AM 75.2 °F - 63.5 °F 67% 30.04 in 10.0 mi Calm Calm - N/A   Clear
1:35 AM 74.8 °F - 62.6 °F 66% 30.03 in 10.0 mi Calm Calm - N/A   Clear
1:55 AM 75.6 °F - 63.3 °F 66% 30.03 in 10.0 mi Calm Calm - N/A   Clear
2:15 AM 75.0 °F - 63.0 °F 66% 30.03 in 10.0 mi Calm Calm - N/A Thunderstorm Clear
2:35 AM 73.0 °F - 63.9 °F 73% 30.02 in 10.0 mi Calm Calm - N/A   Clear
2:55 AM 73.0 °F - 65.8 °F 78% 30.02 in 10.0 mi Calm Calm - N/A   Clear
3:15 AM 73.4 °F - 65.5 °F 76% 30.02 in 10.0 mi Calm Calm - N/A   Clear
3:35 AM 73.0 °F - 65.5 °F 77% 30.02 in 10.0 mi Calm Calm - N/A   Clear
3:55 AM 72.1 °F - 65.7 °F 80% 30.02 in 10.0 mi Calm Calm - N/A   Clear
4:15 AM 73.0 °F - 65.1 °F 76% 30.02 in 10.0 mi Calm Calm - N/A   Clear
4:35 AM 71.2 °F - 66.2 °F 84% 30.02 in 10.0 mi Calm Calm - N/A   Clear
4:55 AM 70.3 °F - 66.0 °F 86% 30.02 in 10.0 mi Calm Calm - N/A   Clear
5:15 AM 70.2 °F - 65.8 °F 86% 30.01 in 10.0 mi Calm Calm - N/A   Clear
5:35 AM 71.6 °F - 64.8 °F 79% 30.01 in 10.0 mi Calm Calm - N/A   Clear
5:55 AM 71.6 °F - 64.8 °F 79% 30.02 in 10.0 mi Calm Calm - N/A   Clear
6:15 AM 70.2 °F - 65.3 °F 85% 30.03 in 10.0 mi Calm Calm - N/A   Clear
6:35 AM 69.6 °F - 65.3 °F 86% 30.03 in 10.0 mi Calm Calm - N/A   Clear
6:55 AM 69.3 °F - 65.3 °F 87% 30.03 in 10.0 mi Calm Calm - N/A   Clear
7:15 AM 69.8 °F - 65.3 °F 86% 30.03 in 10.0 mi Calm Calm - N/A   Clear
7:35 AM 71.4 °F - 65.8 °F 82% 30.04 in 10.0 mi Calm Calm - N/A   Clear
7:55 AM 72.9 °F - 67.1 °F 82% 30.04 in 10.0 mi Calm Calm - N/A   Clear
8:15 AM 74.7 °F - 67.8 °F 79% 30.04 in 10.0 mi Calm Calm - N/A   Clear
8:35 AM 76.5 °F - 68.0 °F 75% 30.04 in 10.0 mi ENE 3.5 mph - N/A   Clear
8:55 AM 78.8 °F - 68.4 °F 70% 30.04 in 10.0 mi East 4.6 mph - N/A   Clear
9:15 AM 80.2 °F 83.1 °F 68.9 °F 68% 30.05 in 10.0 mi SE 5.8 mph - N/A   Clear
9:35 AM 82.2 °F 86.0 °F 70.0 °F 66% 30.05 in 10.0 mi East 3.5 mph - N/A   Clear
9:55 AM 83.5 °F 88.2 °F 70.9 °F 66% 30.05 in 10.0 mi SE 5.8 mph - N/A   Clear
10:15 AM 83.7 °F 88.6 °F 71.4 °F 66% 30.05 in 10.0 mi ESE 4.6 mph - N/A   Clear
10:35 AM 85.1 °F 91.5 °F 72.5 °F 66% 30.06 in 10.0 mi SSE 5.8 mph - N/A   Scattered Clouds
10:55 AM 86.5 °F 93.3 °F 72.7 °F 63% 30.06 in 10.0 mi SSE 3.5 mph - N/A   Scattered Clouds
11:15 AM 85.8 °F 92.2 °F 72.3 °F 64% 30.05 in 10.0 mi East 3.5 mph - N/A   Scattered Clouds
11:35 AM 87.1 °F 93.2 °F 71.6 °F 60% 30.05 in 10.0 mi Calm Calm - N/A   Clear
11:55 AM 88.2 °F 94.1 °F 71.4 °F 57% 30.05 in 10.0 mi ENE 3.5 mph - N/A   Scattered Clouds
12:15 PM 87.4 °F 92.7 °F 70.3 °F 57% 30.04 in 10.0 mi Calm Calm - N/A   Scattered Clouds
12:35 PM 87.8 °F 92.2 °F 69.3 °F 54% 30.03 in 10.0 mi Calm Calm - N/A   Clear
12:55 PM 90.1 °F 93.5 °F 67.3 °F 47% 30.02 in 10.0 mi Calm Calm - N/A   Clear
1:15 PM 91.0 °F 93.8 °F 66.6 °F 44% 30.02 in 10.0 mi Calm Calm - N/A   Clear
1:35 PM 91.6 °F 95.7 °F 68.2 °F 46% 30.02 in 10.0 mi ESE 3.5 mph - N/A   Clear
1:55 PM 92.3 °F 96.1 °F 67.6 °F 44% 30.01 in 10.0 mi Calm Calm - N/A   Clear
2:15 PM 92.7 °F 96.2 °F 67.1 °F 43% 30.00 in 10.0 mi NNE 4.6 mph - N/A   Clear
2:35 PM 93.7 °F 97.7 °F 67.6 °F 42% 30.00 in 10.0 mi ENE 4.6 mph - N/A   Clear
2:55 PM 94.1 °F 97.9 °F 67.1 °F 41% 29.99 in 10.0 mi Calm Calm - N/A   Clear
3:15 PM 94.1 °F 97.3 °F 66.4 °F 40% 29.99 in 10.0 mi East 6.9 mph 16.1 mph N/A   Clear
3:35 PM 92.8 °F 95.6 °F 65.7 °F 41% 29.98 in 10.0 mi Calm Calm - N/A   Clear
3:55 PM 94.6 °F 97.3 °F 65.7 °F 38% 29.97 in 10.0 mi SE 3.5 mph - N/A   Clear
4:15 PM 94.3 °F 96.7 °F 64.9 °F 38% 29.97 in 10.0 mi SE 6.9 mph - N/A   Clear
4:35 PM 94.5 °F 97.5 °F 65.8 °F 39% 29.96 in 10.0 mi ESE 4.6 mph - N/A   Clear
4:55 PM 95.2 °F 97.3 °F 64.4 °F 36% 29.96 in 10.0 mi ESE 4.6 mph - N/A   Clear
5:15 PM 94.8 °F 97.1 °F 65.1 °F 37% 29.95 in 10.0 mi ESE 6.9 mph - N/A   Clear
5:35 PM 95.0 °F 97.4 °F 64.8 °F 37% 29.95 in 10.0 mi East 4.6 mph - N/A   Clear
5:55 PM 94.5 °F 96.5 °F 64.8 °F 37% 29.94 in 10.0 mi ESE 5.8 mph - N/A   Clear
6:15 PM 94.3 °F 96.7 °F 65.3 °F 38% 29.94 in 10.0 mi SE 9.2 mph - N/A   Clear
6:35 PM 93.2 °F 95.3 °F 65.1 °F 39% 29.94 in 10.0 mi SE 8.1 mph - N/A   Clear
6:55 PM 92.1 °F 95.3 °F 66.4 °F 43% 29.94 in 10.0 mi ESE 8.1 mph - N/A   Clear
7:15 PM 91.8 °F 94.6 °F 66.2 °F 43% 29.94 in 10.0 mi ESE 5.8 mph - N/A   Clear
7:35 PM 90.7 °F 94.1 °F 67.1 °F 46% 29.94 in 10.0 mi SE 9.2 mph - N/A   Clear
7:55 PM 89.1 °F 93.3 °F 68.5 °F 51% 29.94 in 10.0 mi ESE 5.8 mph - N/A   Clear
8:15 PM 87.3 °F 91.6 °F 69.1 °F 55% 29.95 in 10.0 mi ESE 4.6 mph - N/A   Clear
8:35 PM 86.9 °F 91.3 °F 69.4 °F 56% 29.95 in 10.0 mi ESE 5.8 mph - N/A   Clear
8:55 PM 86.2 °F 90.7 °F 69.8 °F 58% 29.95 in 10.0 mi SE 8.1 mph - N/A   Clear
9:15 PM 85.6 °F 90.4 °F 70.3 °F 60% 29.97 in 10.0 mi SE 9.2 mph - N/A   Clear
9:35 PM 84.6 °F 89.4 °F 70.9 °F 63% 29.97 in 10.0 mi SE 5.8 mph - N/A   Clear
9:55 PM 83.7 °F 88.6 °F 71.2 °F 66% 29.98 in 10.0 mi SE 4.6 mph - N/A   Clear
10:15 PM 83.1 °F 88.1 °F 71.6 °F 68% 29.98 in 10.0 mi SSE 4.6 mph - N/A   Clear
10:35 PM 82.2 °F 86.9 °F 71.6 °F 70% 29.99 in 10.0 mi SSE 4.6 mph - N/A   Clear
10:55 PM 81.5 °F 85.9 °F 71.8 °F 72% 29.99 in 10.0 mi SE 3.5 mph - N/A   Clear
11:15 PM 81.0 °F 85.2 °F 71.8 °F 74% 29.99 in 10.0 mi SSE 3.5 mph - N/A   Clear
11:35 PM 80.4 °F 84.4 °F 72.0 °F 75% 29.99 in 10.0 mi SSE 3.5 mph - N/A   Clear
11:55 PM 80.2 °F 84.3 °F 72.5 °F 77% 29.99 in 10.0 mi Calm Calm - N/A   Clear